• Processing (Info)

  • MPEC 2013-R66 : 2013 RC32

    The following Minor Planet Electronic Circular may be linked-to from your own Web pages, but must not otherwise be redistributed electronically.

    A form allowing access to any MPEC is at the bottom of this page.


    Read MPEC 2013-R65 Read MPEC 2013-R67


    M.P.E.C. 2013-R66                                Issued 2013 Sept. 8, 14:14 UT
    
         The Minor Planet Electronic Circulars contain information on unusual
             minor planets and routine data on comets.  They are published
       on behalf of Commission 20 of the International Astronomical Union by the
              Minor Planet Center, Smithsonian Astrophysical Observatory,
                              Cambridge, MA 02138, U.S.A.
    
                 Prepared using the Tamkin Foundation Computer Network
    
                                  MPC@CFA.HARVARD.EDU
                URL https://www.minorplanetcenter.net/    ISSN 1523-6714
    
                                       2013 RC32
    
    Observations:
         K13R32C* C2013 09 05.42596 01 49 52.78 -07 28 14.4          19.8 VqER066703
         K13R32C  C2013 09 05.43108 01 49 55.32 -07 28 05.8          19.0 VqER066703
         K13R32C  C2013 09 05.43610 01 49 57.91 -07 28 00.0          19.6 VqER066703
         K13R32C  C2013 09 05.46867 01 50 14.14 -07 27 10.9          19.9 VqER066703
         K13R32C  C2013 09 05.46992 01 50 14.73 -07 27 08.4          19.3 VqER066703
         K13R32C  C2013 09 05.47116 01 50 15.33 -07 27 06.3          19.9 VqER066703
         K13R32C  C2013 09 05.47240 01 50 16.10 -07 27 04.5          19.1 VqER066703
         K13R32C  C2013 09 05.47363 01 50 16.57 -07 27 02.3          19.4 VqER066703
         K13R32C KC2013 09 06.01964 01 55 06.69 -07 13 13.6          19.3 RtER066A79
         K13R32C KC2013 09 06.03052 01 55 12.31 -07 12 56.4          19.4 RtER066A79
         K13R32C KC2013 09 06.06255 01 55 29.45 -07 12 06.3          20.3 VqER066595
         K13R32C KC2013 09 06.07059 01 55 33.66 -07 11 53.6                qER066595
         K13R32C KC2013 09 06.07566 01 55 36.28 -07 11 45.8                qER066595
         K13R32C  C2013 09 06.34175 01 58 02.77 -07 04 28.5          19.8 RoER066291
         K13R32C  C2013 09 06.34319 01 58 03.64 -07 04 25.9          19.8 RoER066291
         K13R32C  C2013 09 06.34462 01 58 04.40 -07 04 23.7          19.9 RoER066291
         K13R32C KC2013 09 06.39602 01 58 31.86 -07 02 59.9          19.2 RoER066291
         K13R32C KC2013 09 06.39671 01 58 32.18 -07 03 00.0                oER066291
         K13R32C KC2013 09 06.39740 01 58 32.56 -07 02 58.2          19.2 RoER066291
         K13R32C  C2013 09 06.41337 01 58 41.05 -07 02 32.5          19.5 VqER066G96
         K13R32C  C2013 09 06.41874 01 58 43.90 -07 02 23.8          19.4 VqER066G96
         K13R32C  C2013 09 06.42411 01 58 46.78 -07 02 15.0          19.6 VqER066G96
         K13R32C  C2013 09 06.42951 01 58 49.66 -07 02 06.1          19.6 VqER066G96
         K13R32C KC2013 09 06.47670 01 59 14.96 -07 00 47.8          19.6 RoER066291
         K13R32C KC2013 09 06.47791 01 59 15.59 -07 00 46.3          18.4 RoER066291
         K13R32C KC2013 09 06.47912 01 59 16.23 -07 00 43.8          19.7 RoER066291
         K13R32C KC2013 09 06.75869102 01 52.83 -06 51 58.9          20.7 VqER066Q63
         K13R32C KC2013 09 06.76189002 01 54.57 -06 51 53.5          20.1 VqER066Q63
         K13R32C KC2013 09 06.76521202 01 56.41 -06 51 47.6          20.3 VqER066Q63
         K13R32C KC2013 09 06.77165002 01 59.91 -06 51 36.3          20.4 VqER066Q63
         K13R32C KC2013 09 06.77526102 02 01.87 -06 51 30.5          20.6 VqER066Q63
         K13R32C KC2013 09 07.03625 02 04 33.13 -06 45 04.6          20.0  qER066104
         K13R32C KC2013 09 07.04306 02 04 37.01 -06 44 54.1          19.9  qER066104
         K13R32C KC2013 09 07.04874 02 04 40.15 -06 44 43.6          20.1  qER066104
         K13R32C  C2013 09 07.09345 02 05 05.22 -06 43 28.5          20.7 RoER066033
         K13R32C  C2013 09 07.10242 02 05 10.19 -06 43 13.7          20.8 RoER066033
         K13R32C KC2013 09 07.10842 02 05 13.65 -06 42 58.7          19.6  qER066104
         K13R32C KC2013 09 07.11411 02 05 16.81 -06 42 48.8          19.8  qER066104
         K13R32C KC2013 09 07.11994 02 05 20.14 -06 42 38.4          19.8  qER066104
         K13R32C  C2013 09 07.12341 02 05 22.10 -06 42 35.4          20.9 RoER066033
         K13R32C  C2013 09 07.13240 02 05 27.07 -06 42 20.6          20.9 RoER066033
         K13R32C KC2013 09 07.39576702 08 01.35 -06 34 22.7          20.0 VuER066H21
         K13R32C KC2013 09 07.39777502 08 02.51 -06 34 19.0          20.2 VuER066H21
         K13R32C KC2013 09 07.39919102 08 03.31 -06 34 16.7          19.8 VuER066H21
         K13R32C KC2013 09 07.40084402 08 04.26 -06 34 13.4          20.0 VuER066H21
         K13R32C KC2013 09 07.40273002 08 05.32 -06 34 09.6          20.0 VuER066H21
         K13R32C KC2013 09 07.42585 02 08 19.02 -06 33 27.4          19.5 RqER066H36
         K13R32C KC2013 09 07.43078 02 08 21.80 -06 33 19.3          19.6 RqER066H36
         K13R32C KC2013 09 07.43466 02 08 24.00 -06 33 11.5          20.1 RqER066H36
         K13R32C KC2013 09 07.97207 02 13 50.24 -06 16 31.3          19.7 VqER066595
         K13R32C KC2013 09 07.98682 02 13 59.11 -06 16 02.7          19.7 VqER066595
    
    Observer details:
    033 Karl Schwarzschild Observatory, Tautenburg.  Observer B. Stecklum.  1.34-m
        f/4 Schmidt + CCD.
    104 San Marcello Pistoiese.  Observer P. Bacci.  Measurers P. Bacci, L. Tesi,
        G. Fagioli.  0.60-m f/4 reflector + CCD.
    291 LPL/Spacewatch II.  Observer T. H. Bressi.  1.8-m f/2.7 reflector + CCD.
    595 Farra d'Isonzo.  Observers E. Pettarin, F. Piani.  Measurer E. Pettarin.
        0.61-m f/4.0 reflector + CCD.
    703 Catalina Sky Survey.  Observer R. E. Hill.  Measurers A. Boattini,
        E. J. Christensen, A. R. Gibbs, A. D. Grauer, R. E. Hill, J. A. Johnson,
        R. A. Kowalski, S. M. Larson, R. H. McNaught, F. C. Shelly.  0.68-m
        Schmidt + CCD.
    A79 Zvezdno Obshtestvo Observatory, Plana.  Observers F. Fratev, M. Minkov.
        Measurer F. Fratev.  0.35-m f/3.5 reflector + CCD.
    G96 Mt. Lemmon Survey.  Observer A. D. Grauer.  Measurers A. Boattini,
        E. J. Christensen, A. R. Gibbs, A. D. Grauer, R. E. Hill, J. A. Johnson,
        R. A. Kowalski, S. M. Larson, R. H. McNaught, F. C. Shelly.  1.5-m
        reflector + CCD.
    H21 Astronomical Research Observatory, Westfield.  Observer R. Holmes.
        Measurers T. Linder, S. Foglia, L. Buzzi, T. Vorobjov.  0.61-m f/4.5
        astrograph + CCD.
    H36 Sandlot Observatory, Scranton.  Observer G. Hug.  0.56-m reflector + CCD.
    Q63 Siding Spring-LCOGT A.  Observer T. Lister.  1.0-m f/8 Ritchey-Chretien
        + CCD.
    
    Orbital elements:
    2013 RC32                                                Earth MOID = 0.0318 AU
    Epoch 2013 Nov. 4.0 TT = JDT 2456600.5                  MPC
    M   2.53793              (2000.0)            P               Q
    n   0.24790973     Peri.    2.57838     +0.65150522     -0.75766927
    a   2.5096144      Node    46.76988     +0.69509473     +0.57585887
    e   0.6380157      Incl.    3.02483     +0.30394781     +0.30712187
    P   3.98           H   22.1           G   0.15           U   8
    Residuals in seconds of arc
    130905 703  0.1-  0.2-    130906 291  0.2-  0.6-    130907 033  0.6+  0.5+
    130905 703  0.3-  0.8+    130906 291  0.1-  0.1+    130907 033  0.7-  0.5-
    130905 703  0.9+  0.9-    130906 G96  0.2+  0.1+    130907 104  0.3+  0.1+
    130905 703  0.1+  0.4-    130906 G96  0.1-  0.0     130907 104  0.3-  0.1-
    130905 703  0.4-  0.2+    130906 G96  0.1+  0.0     130907 104  0.4+  0.1+
    130905 703  0.7-  0.4+    130906 G96  0.1+  0.0     130907 033  0.2+  0.8+
    130905 703  1.5+  0.4+    130906 291  0.2+  0.0     130907 033  1.5-  0.3-
    130905 703  0.7-  0.7+    130906 291  0.1-  0.5-    130907 H21  0.1+  0.0
    130906 A79  1.6+  1.4-    130906 291  0.3-  0.0     130907 H21  0.2+  0.0
    130906 A79  0.7+  1.3-    130906 Q63  0.4+  0.2+    130907 H21  0.1+  0.3-
    130906 595  0.1-  0.4+    130906 Q63  0.2+  0.1+    130907 H21  0.1+  0.0
    130906 595  0.2-  0.4+    130906 Q63  0.6+  0.3+    130907 H21  0.2-  0.4+
    130906 595  0.8-  0.1+    130906 Q63  0.2+  0.6+    130907 H36  1.0+  0.2+
    130906 291  1.6-  0.0     130906 Q63  0.1-  0.2+    130907 H36  0.2+  0.7-
    130906 291  0.1-  0.3+    130907 104  0.0   0.4+    130907 H36  0.1-  0.0
    130906 291  0.1-  0.2+    130907 104  0.9+  0.9-    130907 595  0.4-  0.2-
    130906 291  0.5+  0.7+    130907 104  0.2+  0.3-    130907 595  0.3-  0.3+
    
    Ephemeris:
    2013 RC32                a,e,i = 2.51, 0.64, 3                   q = 0.9084
    Date    TT    R. A. (2000) Decl.     Delta      r     Elong.  Phase     V
    2013 08 09    23 50 31.8 -11 36 03   0.4236  1.3731   142.1    26.9    22.1
    ...
    2013 08 24    00 35 42.8 -10 24 09   0.2707  1.2416   144.6    28.2    21.0
    ...
    2013 09 01    01 16 48.0 -08 55 48   0.2028  1.1746   141.4    32.4    20.4
    ...
    2013 09 07    02 04 10.9 -06 45 28   0.1604  1.1267   134.8    39.4    19.9
    2013 09 08    02 14 05.1 -06 14 55   0.1544  1.1189   133.2    41.0    19.9
    2013 09 09    02 24 39.9 -05 41 13   0.1486  1.1113   131.5    42.8    19.8
    ...
    2013 09 15    03 43 18.5 -01 05 28   0.1231  1.0671   117.0    57.1    19.8
    ...
    2013 09 23    05 52 59.7 +06 42 20   0.1204  1.0142    91.7    81.5    20.4
    ...
    2013 10 08    08 36 24.4 +13 03 58   0.1930  0.9398    66.7   102.4    22.1
    
    A. U. Tomatic                (C) Copyright 2013 MPC           M.P.E.C. 2013-R66
    

    Read MPEC 2013-R65 Read MPEC 2013-R67


    MPEC number:

    Enter an MPEC number in one of the following forms:

    • 1997-B01 (the full form)
    • J97B01 (the packed version of the full form)
    • B01 (the abbreviated form)